DAL1707 KATL-TJSJ

Flight info

Callsign DAL1707
Flight time 2h 58m
Altitude 39000
Route VRSTY3 NOKIE DCT YANTI Q89 MANLE Y185 RENAH Y355 PLING RTE7 SAALR
Aircraft A333/H-SDE3GHIJ2J3J5M1RVWXY/LB2D1

Departure

Time 2026-05-05 18:08
Airport Hartsfield Jackson Atlanta International Airport (KATL)

Arrival

Time 2026-05-05 21:06
Airport Luis Munoz Marin International Airport (TJSJ)
Time Latitude Longitude Altitude Speed Heading
2026-05-05 17:29 33.64187 -84.42640 1010 ft 0 kts 90°
2026-05-05 17:48 33.64187 -84.42662 1010 ft 3 kts 90°
2026-05-05 17:49 33.64187 -84.42685 1010 ft 3 kts 92°
2026-05-05 17:49 33.64188 -84.42707 1010 ft 3 kts 94°
2026-05-05 17:49 33.64194 -84.42730 1010 ft 3 kts 140°
2026-05-05 17:49 33.64211 -84.42741 1010 ft 2 kts 181°
2026-05-05 17:50 33.64212 -84.42741 1010 ft 0 kts 181°
2026-05-05 17:53 33.64187 -84.42741 1010 ft 6 kts 179°
2026-05-05 17:53 33.64149 -84.42739 1010 ft 5 kts 178°
2026-05-05 17:53 33.64106 -84.42737 1010 ft 7 kts 178°
2026-05-05 17:53 33.64053 -84.42735 1010 ft 8 kts 177°
2026-05-05 17:54 33.64019 -84.42733 1010 ft 0 kts 178°
2026-05-05 17:54 33.64018 -84.42733 1010 ft 0 kts 178°
2026-05-05 17:56 33.64017 -84.42733 1010 ft 1 kts 179°
2026-05-05 17:56 33.64012 -84.42733 1010 ft 0 kts 179°
2026-05-05 17:56 33.64009 -84.42733 1010 ft 2 kts 180°
2026-05-05 17:56 33.63913 -84.42732 1010 ft 20 kts 180°
2026-05-05 17:57 33.63792 -84.42732 1010 ft 15 kts 180°
2026-05-05 17:57 33.63706 -84.42739 1010 ft 16 kts 197°
2026-05-05 17:57 33.63601 -84.42760 1010 ft 12 kts 147°
2026-05-05 17:57 33.63582 -84.42678 1011 ft 14 kts 89°
2026-05-05 17:58 33.63582 -84.42515 1011 ft 25 kts 90°
2026-05-05 17:58 33.63582 -84.42341 1011 ft 17 kts 91°
2026-05-05 17:58 33.63582 -84.42159 1011 ft 26 kts 90°
2026-05-05 17:58 33.63581 -84.41985 1010 ft 19 kts 90°
2026-05-05 17:59 33.63581 -84.41819 1010 ft 19 kts 90°
2026-05-05 17:59 33.63580 -84.41643 1009 ft 22 kts 90°
2026-05-05 17:59 33.63581 -84.41477 1009 ft 15 kts 90°
2026-05-05 17:59 33.63581 -84.41339 1009 ft 19 kts 89°
2026-05-05 18:00 33.63580 -84.41207 1009 ft 9 kts 90°
2026-05-05 18:00 33.63580 -84.41163 1010 ft 0 kts 89°
2026-05-05 18:01 33.63580 -84.41157 1010 ft 2 kts 89°
2026-05-05 18:01 33.63581 -84.41144 1010 ft 0 kts 89°
2026-05-05 18:05 33.63581 -84.41143 1010 ft 1 kts 89°
2026-05-05 18:05 33.63581 -84.41111 1010 ft 7 kts 89°
2026-05-05 18:06 33.63582 -84.41044 1010 ft 8 kts 89°
2026-05-05 18:06 33.63583 -84.41021 1010 ft 8 kts 90°
2026-05-05 18:06 33.63582 -84.40918 1010 ft 7 kts 90°
2026-05-05 18:06 33.63582 -84.40861 1010 ft 7 kts 90°
2026-05-05 18:07 33.63578 -84.40797 1010 ft 10 kts 102°
2026-05-05 18:07 33.63505 -84.40754 1011 ft 16 kts 205°
2026-05-05 18:07 33.63471 -84.40899 1011 ft 26 kts 269°
2026-05-05 18:07 33.63472 -84.41354 1010 ft 84 kts 270°
2026-05-05 18:08 33.63474 -84.42278 1013 ft 136 kts 269°
2026-05-05 18:08 33.63494 -84.43501 1376 ft 149 kts 266°
2026-05-05 18:08 33.63523 -84.44758 1915 ft 158 kts 265°
2026-05-05 18:08 33.63532 -84.46075 2577 ft 155 kts 263°
2026-05-05 18:09 33.63511 -84.47417 3026 ft 168 kts 263°
2026-05-05 18:09 33.63487 -84.48871 3169 ft 181 kts 264°
2026-05-05 18:09 33.63461 -84.50453 3410 ft 198 kts 263°
2026-05-05 18:09 33.63435 -84.52198 3520 ft 221 kts 264°
2026-05-05 18:10 33.63423 -84.54131 3639 ft 242 kts 266°
2026-05-05 18:10 33.63426 -84.56231 3880 ft 260 kts 265°
2026-05-05 18:10 33.63432 -84.58431 4429 ft 264 kts 267°
2026-05-05 18:10 33.63439 -84.60639 5052 ft 267 kts 266°
2026-05-05 18:11 33.63422 -84.62877 5699 ft 268 kts 263°
2026-05-05 18:11 33.63014 -84.65010 6494 ft 259 kts 242°
2026-05-05 18:11 33.61943 -84.66710 7165 ft 256 kts 219°
2026-05-05 18:11 33.60466 -84.67909 7791 ft 260 kts 212°
2026-05-05 18:12 33.58863 -84.68956 8362 ft 266 kts 205°
2026-05-05 18:12 33.57051 -84.69509 8968 ft 275 kts 185°
2026-05-05 18:12 33.55770 -84.69452 9324 ft 282 kts 177°
2026-05-05 18:12 33.53806 -84.69112 9882 ft 288 kts 174°
2026-05-05 18:13 33.51816 -84.68707 10415 ft 292 kts 174°
2026-05-05 18:13 33.49799 -84.68301 10969 ft 295 kts 174°
2026-05-05 18:13 33.47763 -84.67899 11516 ft 298 kts 174°
2026-05-05 18:13 33.45704 -84.67502 12051 ft 301 kts 174°
2026-05-05 18:14 33.43649 -84.66917 12570 ft 308 kts 162°
2026-05-05 18:14 33.41775 -84.65605 13059 ft 320 kts 141°
2026-05-05 18:14 33.40323 -84.63491 13288 ft 338 kts 124°
2026-05-05 18:14 33.39105 -84.61008 13509 ft 354 kts 121°
2026-05-05 18:15 33.37884 -84.58387 13685 ft 368 kts 121°
2026-05-05 18:15 33.36625 -84.55701 13901 ft 381 kts 121°
2026-05-05 18:15 33.35297 -84.52899 14083 ft 392 kts 121°
2026-05-05 18:15 33.33931 -84.50039 14409 ft 399 kts 121°
2026-05-05 18:16 33.32543 -84.47147 14797 ft 403 kts 121°
2026-05-05 18:16 33.31137 -84.44228 15193 ft 407 kts 121°
2026-05-05 18:16 33.29717 -84.41285 15597 ft 411 kts 121°
2026-05-05 18:16 33.28280 -84.38312 16000 ft 415 kts 121°
2026-05-05 18:17 33.26831 -84.35317 16453 ft 418 kts 121°
2026-05-05 18:17 33.25367 -84.32294 16852 ft 422 kts 121°
2026-05-05 18:17 33.23890 -84.29247 17257 ft 426 kts 121°
2026-05-05 18:17 33.22401 -84.26177 17650 ft 428 kts 121°
2026-05-05 18:18 33.20902 -84.23090 18050 ft 432 kts 121°
2026-05-05 18:18 33.19386 -84.19970 18394 ft 435 kts 121°
2026-05-05 18:18 33.17861 -84.16835 18719 ft 439 kts 121°
2026-05-05 18:18 33.16321 -84.13672 19048 ft 442 kts 121°
2026-05-05 18:19 33.14771 -84.10490 19375 ft 445 kts 121°
2026-05-05 18:19 33.13211 -84.07291 19703 ft 447 kts 121°
2026-05-05 18:19 33.11640 -84.04073 20038 ft 450 kts 121°
2026-05-05 18:19 33.10043 -84.00850 20363 ft 453 kts 124°
2026-05-05 18:20 33.08162 -83.97838 20688 ft 453 kts 135°
2026-05-05 18:20 33.05837 -83.95316 21008 ft 452 kts 146°
2026-05-05 18:20 33.03327 -83.93140 21331 ft 453 kts 148°
2026-05-05 18:20 33.00736 -83.90989 21646 ft 455 kts 148°
2026-05-05 18:21 32.98124 -83.88828 21911 ft 459 kts 148°
2026-05-05 18:21 32.95496 -83.86647 22220 ft 462 kts 148°
2026-05-05 18:21 32.92856 -83.84452 22532 ft 464 kts 148°
2026-05-05 18:21 32.90168 -83.82213 22836 ft 467 kts 148°
2026-05-05 18:22 32.87535 -83.80021 23150 ft 469 kts 148°
2026-05-05 18:22 32.84856 -83.77790 23456 ft 472 kts 149°
2026-05-05 18:22 32.82159 -83.75545 23723 ft 474 kts 149°
2026-05-05 18:22 32.79447 -83.73289 23960 ft 477 kts 149°
2026-05-05 18:23 32.76722 -83.71024 24197 ft 480 kts 148°
2026-05-05 18:23 32.73982 -83.68747 24434 ft 482 kts 149°
2026-05-05 18:23 32.71228 -83.66461 24644 ft 484 kts 149°
2026-05-05 18:23 32.68460 -83.64147 24872 ft 487 kts 148°
2026-05-05 18:24 32.65713 -83.61771 25087 ft 490 kts 147°
2026-05-05 18:24 32.62971 -83.59349 25307 ft 492 kts 147°
2026-05-05 18:24 32.60228 -83.56906 25525 ft 495 kts 146°
2026-05-05 18:24 32.57469 -83.54449 25748 ft 497 kts 146°
2026-05-05 18:25 32.54697 -83.51986 25965 ft 499 kts 146°
2026-05-05 18:25 32.52814 -83.50317 26096 ft 501 kts 146°
2026-05-05 18:25 32.49102 -83.47039 26385 ft 504 kts 147°
2026-05-05 18:25 32.46282 -83.44556 26617 ft 506 kts 147°
2026-05-05 18:26 32.43447 -83.42064 26814 ft 508 kts 147°
2026-05-05 18:26 32.40604 -83.39567 27034 ft 510 kts 147°
2026-05-05 18:26 32.37744 -83.37058 27255 ft 512 kts 147°
2026-05-05 18:26 32.34876 -83.34545 27465 ft 514 kts 147°
2026-05-05 18:27 32.31994 -83.32020 27672 ft 516 kts 147°
2026-05-05 18:27 32.29100 -83.29486 27879 ft 518 kts 147°
2026-05-05 18:27 32.26201 -83.26950 28088 ft 520 kts 147°
2026-05-05 18:27 32.23287 -83.24404 28288 ft 522 kts 147°
2026-05-05 18:28 32.17425 -83.19286 28670 ft 526 kts 147°
2026-05-05 18:28 32.14521 -83.16753 28830 ft 527 kts 147°
2026-05-05 18:28 32.11566 -83.14178 29016 ft 529 kts 146°
2026-05-05 18:29 32.08601 -83.11595 29186 ft 531 kts 146°
2026-05-05 18:29 32.05619 -83.09002 29380 ft 533 kts 146°
2026-05-05 18:29 32.02631 -83.06406 29570 ft 535 kts 147°
2026-05-05 18:29 31.99632 -83.03802 29746 ft 536 kts 147°
2026-05-05 18:30 31.96623 -83.01192 29921 ft 538 kts 147°
2026-05-05 18:30 31.93603 -82.98574 30096 ft 540 kts 147°
2026-05-05 18:30 31.90578 -82.95955 30244 ft 541 kts 147°
2026-05-05 18:30 31.87537 -82.93323 30342 ft 543 kts 147°
2026-05-05 18:31 31.84489 -82.90688 30509 ft 544 kts 147°
2026-05-05 18:31 31.81435 -82.88049 30651 ft 545 kts 147°
2026-05-05 18:31 31.78382 -82.85390 30798 ft 547 kts 146°
2026-05-05 18:31 31.75378 -82.82635 30990 ft 548 kts 144°
2026-05-05 18:32 31.72409 -82.79818 31194 ft 549 kts 143°
2026-05-05 18:32 31.69452 -82.76975 31386 ft 549 kts 143°
2026-05-05 18:32 31.66497 -82.74128 31562 ft 550 kts 143°
2026-05-05 18:32 31.63536 -82.71286 31730 ft 550 kts 143°
2026-05-05 18:33 31.60564 -82.68449 31913 ft 551 kts 143°
2026-05-05 18:33 31.57585 -82.65618 32071 ft 551 kts 144°
2026-05-05 18:33 31.54605 -82.62796 32246 ft 551 kts 144°
2026-05-05 18:33 31.51618 -82.59973 32412 ft 552 kts 144°
2026-05-05 18:34 31.48667 -82.57189 32592 ft 552 kts 144°
2026-05-05 18:34 31.45675 -82.54367 32766 ft 552 kts 144°
2026-05-05 18:34 31.42681 -82.51545 32943 ft 552 kts 144°
2026-05-05 18:34 31.39690 -82.48728 33102 ft 553 kts 144°
2026-05-05 18:35 31.36690 -82.45904 33257 ft 553 kts 144°
2026-05-05 18:35 31.33689 -82.43082 33421 ft 554 kts 144°
2026-05-05 18:35 31.30688 -82.40262 33583 ft 554 kts 144°
2026-05-05 18:35 31.27677 -82.37436 33670 ft 555 kts 144°
2026-05-05 18:36 31.24664 -82.34611 33808 ft 555 kts 144°
2026-05-05 18:36 31.21652 -82.31788 33986 ft 555 kts 144°
2026-05-05 18:36 31.18638 -82.28965 34134 ft 555 kts 144°
2026-05-05 18:36 31.15621 -82.26141 34265 ft 556 kts 144°
2026-05-05 18:37 31.12606 -82.23322 34412 ft 556 kts 144°
2026-05-05 18:37 31.09586 -82.20500 34543 ft 556 kts 144°
2026-05-05 18:37 31.06568 -82.17684 34680 ft 556 kts 144°
2026-05-05 18:37 31.03551 -82.14870 34823 ft 556 kts 144°
2026-05-05 18:38 31.00521 -82.12047 34956 ft 556 kts 144°
2026-05-05 18:38 30.97499 -82.09234 35000 ft 556 kts 144°
2026-05-05 18:38 30.91441 -82.03602 35155 ft 557 kts 144°
2026-05-05 18:39 30.85385 -81.97978 35150 ft 557 kts 144°
2026-05-05 18:39 30.79327 -81.92364 35126 ft 556 kts 144°
2026-05-05 18:40 30.73264 -81.86754 35117 ft 556 kts 144°
2026-05-05 18:40 30.67208 -81.81160 35121 ft 556 kts 144°
2026-05-05 18:41 30.61163 -81.75643 35095 ft 556 kts 146°
2026-05-05 18:41 30.54855 -81.70449 35098 ft 555 kts 149°
2026-05-05 18:42 30.48477 -81.65407 35103 ft 555 kts 149°
2026-05-05 18:42 30.42112 -81.60350 35092 ft 555 kts 148°
2026-05-05 18:43 30.35761 -81.55264 35111 ft 555 kts 148°
2026-05-05 18:43 30.29418 -81.50173 35111 ft 555 kts 148°
2026-05-05 18:44 30.23075 -81.45088 35112 ft 555 kts 148°
2026-05-05 18:44 30.16722 -81.40006 35119 ft 555 kts 148°
2026-05-05 18:45 30.10376 -81.34939 35092 ft 554 kts 148°
2026-05-05 18:45 30.04023 -81.29876 35128 ft 555 kts 148°
2026-05-05 18:46 29.97707 -81.24850 35130 ft 555 kts 148°
2026-05-05 18:46 29.91347 -81.19796 35123 ft 555 kts 148°
2026-05-05 18:47 29.84986 -81.14750 35118 ft 555 kts 148°
2026-05-05 18:47 29.78250 -81.10586 35108 ft 547 kts 160°
2026-05-05 18:48 29.71247 -81.07149 35111 ft 547 kts 162°
2026-05-05 18:48 29.64204 -81.03856 35103 ft 546 kts 163°
2026-05-05 18:49 29.57156 -81.00566 35112 ft 546 kts 162°
2026-05-05 18:49 29.50121 -80.97263 35106 ft 546 kts 162°
2026-05-05 18:50 29.43085 -80.93952 35108 ft 546 kts 162°
2026-05-05 18:50 29.36058 -80.90649 35122 ft 546 kts 162°
2026-05-05 18:51 29.29018 -80.87345 35114 ft 547 kts 162°
2026-05-05 18:51 29.21971 -80.84043 35081 ft 547 kts 162°
2026-05-05 18:52 29.14969 -80.80768 35102 ft 547 kts 162°
2026-05-05 18:52 29.07926 -80.77477 35102 ft 547 kts 162°
2026-05-05 18:53 29.00881 -80.74191 35099 ft 547 kts 162°
2026-05-05 18:53 28.93830 -80.70907 35098 ft 547 kts 162°
2026-05-05 18:54 28.87162 -80.66682 35092 ft 554 kts 142°
2026-05-05 18:54 28.84380 -80.63653 35092 ft 554 kts 129°
2026-05-05 18:54 28.82026 -80.60170 35091 ft 554 kts 125°
2026-05-05 18:55 28.77689 -80.52899 35100 ft 555 kts 122°
2026-05-05 18:55 28.73481 -80.45506 35077 ft 556 kts 121°
2026-05-05 18:56 28.69236 -80.38140 35076 ft 557 kts 122°
2026-05-05 18:56 28.64917 -80.30818 35076 ft 557 kts 123°
2026-05-05 18:57 28.60578 -80.23526 35076 ft 557 kts 123°
2026-05-05 18:57 28.56237 -80.16241 35114 ft 555 kts 123°
2026-05-05 18:58 28.51901 -80.08967 35081 ft 556 kts 123°
2026-05-05 18:58 28.47560 -80.01692 35089 ft 556 kts 123°
2026-05-05 18:59 28.43213 -79.94419 35084 ft 556 kts 123°
2026-05-05 18:59 28.38864 -79.87154 35082 ft 556 kts 123°
2026-05-05 19:00 28.35243 -79.81116 35090 ft 556 kts 123°
2026-05-05 19:00 28.30881 -79.73855 35089 ft 557 kts 123°
2026-05-05 19:01 28.26509 -79.66588 35051 ft 557 kts 123°
2026-05-05 19:01 28.21430 -79.58162 35084 ft 555 kts 123°
2026-05-05 19:02 28.17777 -79.52112 35083 ft 555 kts 123°
2026-05-05 19:02 28.13412 -79.44893 35080 ft 555 kts 123°
2026-05-05 19:03 28.09041 -79.37677 35082 ft 556 kts 123°
2026-05-05 19:03 28.04691 -79.30508 35080 ft 556 kts 123°
2026-05-05 19:04 28.00302 -79.23286 35075 ft 556 kts 123°
2026-05-05 19:04 27.95911 -79.16074 35075 ft 556 kts 123°
2026-05-05 19:05 27.91515 -79.08865 35069 ft 556 kts 123°
2026-05-05 19:05 27.87126 -79.01683 35078 ft 555 kts 123°
2026-05-05 19:06 27.82726 -78.94491 35069 ft 557 kts 123°
2026-05-05 19:06 27.78320 -78.87302 35070 ft 557 kts 123°
2026-05-05 19:07 27.73904 -78.80109 35067 ft 557 kts 123°
2026-05-05 19:07 27.69489 -78.72930 35064 ft 557 kts 123°
2026-05-05 19:08 27.65070 -78.65757 35071 ft 557 kts 122°
2026-05-05 19:08 27.60729 -78.58495 35066 ft 559 kts 121°
2026-05-05 19:09 27.56476 -78.51166 35061 ft 558 kts 121°
2026-05-05 19:09 27.52233 -78.43859 35064 ft 557 kts 121°
2026-05-05 19:10 27.47978 -78.36575 35061 ft 557 kts 121°
2026-05-05 19:10 27.43710 -78.29300 35062 ft 557 kts 121°
2026-05-05 19:11 27.39439 -78.22035 35059 ft 557 kts 121°
2026-05-05 19:11 27.35165 -78.14776 35059 ft 557 kts 121°
2026-05-05 19:12 27.30912 -78.07563 35056 ft 557 kts 121°
2026-05-05 19:12 27.26630 -78.00309 35056 ft 557 kts 121°
2026-05-05 19:13 27.22346 -77.93063 35061 ft 557 kts 121°
2026-05-05 19:13 27.18054 -77.85816 35053 ft 557 kts 121°
2026-05-05 19:14 27.13754 -77.78568 35053 ft 557 kts 121°
2026-05-05 19:14 27.09450 -77.71323 35053 ft 557 kts 121°
2026-05-05 19:15 27.05146 -77.64093 35050 ft 557 kts 121°
2026-05-05 19:15 27.00843 -77.56871 35058 ft 557 kts 121°
2026-05-05 19:16 26.96626 -77.49676 35048 ft 555 kts 120°
2026-05-05 19:16 26.92407 -77.42417 35048 ft 555 kts 120°
2026-05-05 19:17 26.88188 -77.35172 35041 ft 555 kts 120°
2026-05-05 19:17 26.83962 -77.27942 35045 ft 555 kts 120°
2026-05-05 19:18 26.79727 -77.20714 35054 ft 555 kts 121°
2026-05-05 19:18 26.75496 -77.13505 35042 ft 554 kts 121°
2026-05-05 19:19 26.71266 -77.06310 35042 ft 554 kts 121°
2026-05-05 19:19 26.67027 -76.99110 35043 ft 554 kts 121°
2026-05-05 19:20 26.62785 -76.91918 35040 ft 554 kts 121°
2026-05-05 19:20 26.58538 -76.84727 35049 ft 554 kts 121°
2026-05-05 19:21 26.54299 -76.77563 35026 ft 552 kts 121°
2026-05-05 19:21 26.50061 -76.70409 35040 ft 552 kts 121°
2026-05-05 19:22 26.45822 -76.63267 35031 ft 552 kts 121°
2026-05-05 19:22 26.41575 -76.56121 35032 ft 552 kts 121°
2026-05-05 19:23 26.37329 -76.48990 35040 ft 552 kts 122°
2026-05-05 19:23 26.33114 -76.41920 35031 ft 550 kts 122°
2026-05-05 19:24 26.28871 -76.34816 35031 ft 550 kts 122°
2026-05-05 19:24 26.24631 -76.27727 35031 ft 550 kts 122°
2026-05-05 19:25 26.20382 -76.20634 35034 ft 550 kts 122°
2026-05-05 19:25 26.16140 -76.13563 35038 ft 548 kts 122°
2026-05-05 19:26 26.11913 -76.06529 35032 ft 545 kts 122°
2026-05-05 19:26 26.07697 -75.99524 35032 ft 545 kts 122°
2026-05-05 19:27 26.03478 -75.92523 35029 ft 545 kts 122°
2026-05-05 19:27 25.99255 -75.85527 35029 ft 545 kts 123°
2026-05-05 19:28 25.95026 -75.78532 35029 ft 545 kts 123°
2026-05-05 19:28 25.90803 -75.71556 35025 ft 542 kts 123°
2026-05-05 19:29 25.86593 -75.64614 35026 ft 541 kts 123°
2026-05-05 19:29 25.82409 -75.57726 35021 ft 541 kts 123°
2026-05-05 19:30 25.78198 -75.50802 35033 ft 540 kts 123°
2026-05-05 19:30 25.73990 -75.43893 35035 ft 540 kts 123°
2026-05-05 19:31 25.69780 -75.36993 35028 ft 539 kts 124°
2026-05-05 19:31 25.65585 -75.30126 35031 ft 538 kts 124°
2026-05-05 19:32 25.61387 -75.23263 35031 ft 538 kts 124°
2026-05-05 19:32 25.57185 -75.16405 35031 ft 538 kts 124°
2026-05-05 19:33 25.52981 -75.09553 35031 ft 538 kts 124°
2026-05-05 19:33 25.48774 -75.02705 35033 ft 537 kts 125°
2026-05-05 19:34 25.44583 -74.95895 35033 ft 534 kts 125°
2026-05-05 19:35 25.38314 -74.85728 35032 ft 533 kts 125°
2026-05-05 19:35 25.34125 -74.78946 35032 ft 533 kts 125°
2026-05-05 19:36 25.29964 -74.72218 35040 ft 534 kts 125°
2026-05-05 19:36 25.25774 -74.65453 35036 ft 533 kts 125°
2026-05-05 19:37 25.21578 -74.58687 35040 ft 533 kts 125°
2026-05-05 19:37 25.17379 -74.51927 35038 ft 533 kts 125°
2026-05-05 19:38 25.13179 -74.45174 35044 ft 533 kts 125°
2026-05-05 19:38 25.08974 -74.38425 35039 ft 534 kts 125°
2026-05-05 19:39 25.04767 -74.31679 35042 ft 533 kts 125°
2026-05-05 19:39 25.00571 -74.24962 35043 ft 531 kts 126°
2026-05-05 19:40 24.96379 -74.18260 35046 ft 531 kts 126°
2026-05-05 19:40 24.92183 -74.11563 35045 ft 531 kts 126°
2026-05-05 19:41 24.88009 -74.04908 35042 ft 531 kts 126°
2026-05-05 19:41 24.83804 -73.98215 35043 ft 531 kts 126°
2026-05-05 19:42 24.79604 -73.91537 35042 ft 530 kts 126°
2026-05-05 19:42 24.75404 -73.84870 35042 ft 530 kts 126°
2026-05-05 19:43 24.71203 -73.78210 35040 ft 530 kts 126°
2026-05-05 19:43 24.66999 -73.71554 35041 ft 530 kts 126°
2026-05-05 19:44 24.62789 -73.64899 35043 ft 530 kts 126°
2026-05-05 19:44 24.58586 -73.58263 35032 ft 528 kts 126°
2026-05-05 19:45 24.54532 -73.51545 35042 ft 528 kts 122°
2026-05-05 19:45 24.50802 -73.44601 35042 ft 528 kts 121°
2026-05-05 19:46 24.47120 -73.37628 35044 ft 528 kts 121°
2026-05-05 19:46 24.43398 -73.30680 35040 ft 528 kts 121°
2026-05-05 19:47 24.40287 -73.24928 35043 ft 526 kts 122°
2026-05-05 19:47 24.35939 -73.16923 35038 ft 524 kts 122°
2026-05-05 19:48 24.32812 -73.11176 35042 ft 523 kts 122°
2026-05-05 19:48 24.28478 -73.03216 35043 ft 523 kts 122°
2026-05-05 19:49 24.25353 -72.97483 35041 ft 523 kts 122°
2026-05-05 19:49 24.21618 -72.90640 35042 ft 522 kts 122°
2026-05-05 19:50 24.17903 -72.83843 35042 ft 519 kts 122°
2026-05-05 19:50 24.14215 -72.77105 35043 ft 519 kts 122°
2026-05-05 19:51 24.10499 -72.70326 35042 ft 519 kts 122°
2026-05-05 19:51 24.06778 -72.63547 35042 ft 519 kts 122°
2026-05-05 19:52 24.03054 -72.56771 35041 ft 519 kts 123°
2026-05-05 19:52 23.99342 -72.50026 35042 ft 517 kts 123°
2026-05-05 19:53 23.95632 -72.43295 35039 ft 517 kts 123°
2026-05-05 19:53 23.91919 -72.36568 35042 ft 517 kts 123°
2026-05-05 19:54 23.88202 -72.29844 35043 ft 517 kts 123°
2026-05-05 19:54 23.84483 -72.23123 35044 ft 517 kts 123°
2026-05-05 19:55 23.80764 -72.16412 35046 ft 516 kts 123°
2026-05-05 19:55 23.77042 -72.09706 35046 ft 516 kts 123°
2026-05-05 19:56 23.73317 -72.03002 35044 ft 516 kts 123°
2026-05-05 19:56 23.69593 -71.96307 35043 ft 516 kts 123°
2026-05-05 19:57 23.65862 -71.89612 35038 ft 516 kts 123°
2026-05-05 19:57 23.62131 -71.82923 35045 ft 515 kts 123°
2026-05-05 19:58 23.58023 -71.76550 35041 ft 513 kts 129°
2026-05-05 19:58 23.53746 -71.70323 35041 ft 513 kts 130°
2026-05-05 19:59 23.49436 -71.64131 35041 ft 513 kts 130°
2026-05-05 19:59 23.45121 -71.57933 35041 ft 513 kts 130°
2026-05-05 20:00 23.40848 -71.51789 35041 ft 511 kts 130°
2026-05-05 20:00 23.36571 -71.45640 35050 ft 508 kts 130°
2026-05-05 20:01 23.32301 -71.39509 35048 ft 508 kts 130°
2026-05-05 20:01 23.28024 -71.33375 35043 ft 508 kts 130°
2026-05-05 20:02 23.23747 -71.27248 35044 ft 508 kts 130°
2026-05-05 20:02 23.19471 -71.21129 35034 ft 508 kts 129°
2026-05-05 20:03 23.15194 -71.15017 35054 ft 508 kts 130°
2026-05-05 20:03 23.10912 -71.08904 35041 ft 508 kts 130°
2026-05-05 20:04 23.06629 -71.02800 35051 ft 508 kts 130°
2026-05-05 20:04 23.02344 -70.96698 35036 ft 508 kts 130°
2026-05-05 20:05 22.98052 -70.90597 35054 ft 508 kts 130°
2026-05-05 20:05 22.93758 -70.84497 35048 ft 508 kts 130°
2026-05-05 20:06 22.89493 -70.78448 35046 ft 508 kts 130°
2026-05-05 20:06 22.85198 -70.72376 35039 ft 507 kts 130°
2026-05-05 20:07 22.80896 -70.66302 35048 ft 507 kts 130°
2026-05-05 20:07 22.76595 -70.60236 35047 ft 507 kts 130°
2026-05-05 20:08 22.72288 -70.54168 35048 ft 507 kts 130°
2026-05-05 20:08 22.67985 -70.48112 35048 ft 507 kts 130°
2026-05-05 20:09 22.63684 -70.42065 35049 ft 507 kts 130°
2026-05-05 20:09 22.59412 -70.36066 35051 ft 506 kts 130°
2026-05-05 20:10 22.55111 -70.30033 35049 ft 506 kts 130°
2026-05-05 20:10 22.50803 -70.23999 35049 ft 506 kts 130°
2026-05-05 20:11 22.46494 -70.17970 35050 ft 506 kts 130°
2026-05-05 20:11 22.42196 -70.11962 35054 ft 504 kts 130°
2026-05-05 20:12 22.37902 -70.05967 35053 ft 504 kts 130°
2026-05-05 20:12 22.33605 -69.99976 35051 ft 504 kts 130°
2026-05-05 20:13 22.29306 -69.93987 35049 ft 504 kts 130°
2026-05-05 20:13 22.25005 -69.88005 35052 ft 504 kts 130°
2026-05-05 20:14 22.20700 -69.82022 35054 ft 504 kts 130°
2026-05-05 20:14 22.16428 -69.76091 35049 ft 504 kts 130°
2026-05-05 20:15 22.12122 -69.70120 35055 ft 504 kts 131°
2026-05-05 20:15 22.07816 -69.64157 35056 ft 504 kts 130°
2026-05-05 20:16 22.03509 -69.58197 35057 ft 504 kts 130°
2026-05-05 20:16 21.99198 -69.52240 35050 ft 504 kts 130°
2026-05-05 20:17 21.94891 -69.46293 35056 ft 503 kts 130°
2026-05-05 20:17 21.90588 -69.40360 35056 ft 502 kts 130°
2026-05-05 20:18 21.86285 -69.34433 35053 ft 502 kts 130°
2026-05-05 20:18 21.82004 -69.28543 35053 ft 502 kts 131°
2026-05-05 20:19 21.77695 -69.22620 35057 ft 502 kts 131°
2026-05-05 20:19 21.73386 -69.16704 35047 ft 502 kts 131°
2026-05-05 20:20 21.69078 -69.10796 35056 ft 502 kts 131°
2026-05-05 20:20 21.64768 -69.04892 35056 ft 502 kts 131°
2026-05-05 20:21 21.60454 -68.98990 35056 ft 502 kts 131°
2026-05-05 20:21 21.56139 -68.93091 35056 ft 502 kts 131°
2026-05-05 20:22 21.51821 -68.87194 35052 ft 502 kts 131°
2026-05-05 20:22 21.47504 -68.81306 35056 ft 502 kts 131°
2026-05-05 20:23 21.43185 -68.75420 35054 ft 502 kts 131°
2026-05-05 20:23 21.38862 -68.69536 35056 ft 502 kts 131°
2026-05-05 20:24 21.34566 -68.63695 35055 ft 502 kts 131°
2026-05-05 20:24 21.30233 -68.57814 35057 ft 502 kts 131°
2026-05-05 20:25 21.25895 -68.51933 35047 ft 502 kts 131°
2026-05-05 20:25 21.21564 -68.46067 35056 ft 501 kts 131°
2026-05-05 20:26 21.17239 -68.40211 35060 ft 501 kts 131°
2026-05-05 20:26 21.12913 -68.34354 35059 ft 501 kts 131°
2026-05-05 20:27 21.08585 -68.28502 35060 ft 501 kts 131°
2026-05-05 20:27 21.04253 -68.22655 35059 ft 501 kts 131°
2026-05-05 20:28 20.99920 -68.16812 35056 ft 501 kts 131°
2026-05-05 20:28 20.95594 -68.10991 35056 ft 499 kts 131°
2026-05-05 20:29 20.91271 -68.05177 35057 ft 499 kts 131°
2026-05-05 20:29 20.86948 -67.99368 35056 ft 499 kts 131°
2026-05-05 20:30 20.82652 -67.93520 35057 ft 500 kts 131°
2026-05-05 20:30 20.78393 -67.87651 35059 ft 500 kts 131°
2026-05-05 20:31 20.74135 -67.81785 35059 ft 500 kts 131°
2026-05-05 20:31 20.69869 -67.75923 35058 ft 500 kts 131°
2026-05-05 20:32 20.65626 -67.70106 35056 ft 500 kts 131°
2026-05-05 20:32 20.61352 -67.64254 35058 ft 500 kts 131°
2026-05-05 20:33 20.57080 -67.58409 35058 ft 499 kts 131°
2026-05-05 20:33 20.52814 -67.52580 35057 ft 498 kts 131°
2026-05-05 20:34 20.48549 -67.46757 35057 ft 497 kts 131°
2026-05-05 20:34 20.46419 -67.43851 34929 ft 498 kts 131°
2026-05-05 20:34 20.44288 -67.40944 34702 ft 497 kts 131°
2026-05-05 20:34 20.42161 -67.38045 34476 ft 497 kts 131°
2026-05-05 20:35 20.40028 -67.35141 34245 ft 497 kts 131°
2026-05-05 20:35 20.37898 -67.32240 34012 ft 497 kts 130°
2026-05-05 20:35 20.35766 -67.29337 33751 ft 498 kts 130°
2026-05-05 20:35 20.33630 -67.26432 33492 ft 498 kts 130°
2026-05-05 20:36 20.31492 -67.23523 33234 ft 499 kts 130°
2026-05-05 20:36 20.29350 -67.20612 32981 ft 499 kts 131°
2026-05-05 20:36 20.27210 -67.17703 32721 ft 499 kts 131°
2026-05-05 20:36 20.25089 -67.14825 32041 ft 502 kts 131°
2026-05-05 20:37 20.22931 -67.11897 31495 ft 501 kts 131°
2026-05-05 20:37 20.21480 -67.09927 31169 ft 499 kts 131°
2026-05-05 20:37 20.18659 -67.06100 30592 ft 494 kts 131°
2026-05-05 20:37 20.16540 -67.03227 30135 ft 491 kts 131°
2026-05-05 20:38 20.14439 -67.00379 29614 ft 488 kts 131°
2026-05-05 20:38 20.12346 -66.97547 29110 ft 485 kts 130°
2026-05-05 20:38 20.10272 -66.94740 28637 ft 481 kts 130°
2026-05-05 20:38 20.08212 -66.91954 28153 ft 477 kts 130°
2026-05-05 20:39 20.06856 -66.90121 27847 ft 475 kts 130°
2026-05-05 20:39 20.04823 -66.87373 27362 ft 471 kts 130°
2026-05-05 20:39 20.02800 -66.84641 26929 ft 468 kts 130°
2026-05-05 20:39 20.00795 -66.81935 26474 ft 464 kts 131°
2026-05-05 20:40 19.98521 -66.79549 25992 ft 458 kts 144°
2026-05-05 20:40 19.95967 -66.77553 25558 ft 454 kts 147°
2026-05-05 20:40 19.93380 -66.75657 25104 ft 451 kts 148°
2026-05-05 20:40 19.90791 -66.73794 24646 ft 448 kts 148°
2026-05-05 20:41 19.88214 -66.71948 24222 ft 445 kts 148°
2026-05-05 20:41 19.85651 -66.70117 23772 ft 443 kts 148°
2026-05-05 20:41 19.83098 -66.68295 23279 ft 441 kts 148°
2026-05-05 20:41 19.80564 -66.66487 22787 ft 437 kts 148°
2026-05-05 20:42 19.78047 -66.64692 22311 ft 434 kts 148°
2026-05-05 20:42 19.75550 -66.62909 21839 ft 431 kts 148°
2026-05-05 20:42 19.73070 -66.61141 21363 ft 428 kts 148°
2026-05-05 20:42 19.70607 -66.59388 20898 ft 425 kts 148°
2026-05-05 20:43 19.68160 -66.57648 20454 ft 422 kts 148°
2026-05-05 20:43 19.65731 -66.55922 19981 ft 419 kts 148°
2026-05-05 20:43 19.63313 -66.54203 19536 ft 417 kts 148°
2026-05-05 20:43 19.60912 -66.52497 19091 ft 414 kts 148°
2026-05-05 20:44 19.58442 -66.50949 18635 ft 409 kts 158°
2026-05-05 20:44 19.55850 -66.49857 18204 ft 405 kts 163°
2026-05-05 20:44 19.53200 -66.48881 17731 ft 401 kts 163°
2026-05-05 20:44 19.50567 -66.47931 17262 ft 398 kts 163°
2026-05-05 20:45 19.45368 -66.46045 16338 ft 392 kts 163°
2026-05-05 20:45 19.42794 -66.45107 15889 ft 389 kts 162°
2026-05-05 20:45 19.40241 -66.44176 15409 ft 388 kts 163°
2026-05-05 20:46 19.37702 -66.43249 14992 ft 384 kts 163°
2026-05-05 20:46 19.35185 -66.42330 14562 ft 381 kts 162°
2026-05-05 20:46 19.32695 -66.41421 14174 ft 377 kts 162°
2026-05-05 20:46 19.30227 -66.40520 13732 ft 374 kts 161°
2026-05-05 20:47 19.27777 -66.39625 13274 ft 371 kts 162°
2026-05-05 20:47 19.25351 -66.38739 12852 ft 366 kts 161°
2026-05-05 20:47 19.22974 -66.37872 12658 ft 356 kts 162°
2026-05-05 20:47 19.20660 -66.37027 12390 ft 348 kts 161°
2026-05-05 20:48 19.18405 -66.36205 12150 ft 337 kts 161°
2026-05-05 20:48 19.16242 -66.35416 11908 ft 320 kts 161°
2026-05-05 20:48 19.14188 -66.34667 11677 ft 305 kts 162°
2026-05-05 20:48 19.12228 -66.33951 11438 ft 291 kts 161°
2026-05-05 20:49 19.10386 -66.33169 11213 ft 279 kts 157°
2026-05-05 20:49 19.08668 -66.32363 11025 ft 267 kts 157°
2026-05-05 20:49 19.07026 -66.31578 10990 ft 253 kts 156°
2026-05-05 20:49 19.05403 -66.30803 10990 ft 262 kts 156°
2026-05-05 20:50 19.03712 -66.29996 10983 ft 266 kts 156°
2026-05-05 20:50 19.02065 -66.29209 10907 ft 256 kts 156°
2026-05-05 20:50 19.00447 -66.28436 10591 ft 256 kts 156°
2026-05-05 20:50 18.98808 -66.27655 10241 ft 259 kts 156°
2026-05-05 20:51 18.97171 -66.26875 10004 ft 257 kts 156°
2026-05-05 20:51 18.95554 -66.26104 9776 ft 253 kts 156°
2026-05-05 20:51 18.93962 -66.25344 9540 ft 249 kts 157°
2026-05-05 20:51 18.92393 -66.24597 9322 ft 245 kts 156°
2026-05-05 20:52 18.90849 -66.23862 9110 ft 240 kts 157°
2026-05-05 20:52 18.89347 -66.23146 8918 ft 234 kts 157°
2026-05-05 20:52 18.87860 -66.22439 8711 ft 234 kts 157°
2026-05-05 20:52 18.86369 -66.21734 8479 ft 236 kts 158°
2026-05-05 20:53 18.84793 -66.21407 8262 ft 235 kts 180°
2026-05-05 20:53 18.83156 -66.21517 8033 ft 236 kts 186°
2026-05-05 20:53 18.81521 -66.21705 7790 ft 236 kts 186°
2026-05-05 20:53 18.79889 -66.21902 7559 ft 235 kts 186°
2026-05-05 20:54 18.78265 -66.22099 7320 ft 234 kts 186°
2026-05-05 20:54 18.76649 -66.22296 7086 ft 233 kts 186°
2026-05-05 20:54 18.75045 -66.22490 6851 ft 230 kts 186°
2026-05-05 20:54 18.73471 -66.22680 6621 ft 225 kts 186°
2026-05-05 20:55 18.71929 -66.22867 6393 ft 221 kts 186°
2026-05-05 20:55 18.70402 -66.23054 6143 ft 220 kts 186°
2026-05-05 20:55 18.68887 -66.23251 5889 ft 218 kts 187°
2026-05-05 20:55 18.67386 -66.23455 5671 ft 217 kts 186°
2026-05-05 20:56 18.65896 -66.23676 5418 ft 216 kts 186°
2026-05-05 20:56 18.64419 -66.23906 5176 ft 213 kts 186°
2026-05-05 20:56 18.62953 -66.24148 4935 ft 213 kts 187°
2026-05-05 20:56 18.61492 -66.24394 4700 ft 213 kts 187°
2026-05-05 20:57 18.60029 -66.24630 4451 ft 212 kts 185°
2026-05-05 20:57 18.58583 -66.24882 4213 ft 210 kts 187°
2026-05-05 20:57 18.57147 -66.25125 3972 ft 208 kts 186°
2026-05-05 20:57 18.55735 -66.25380 3736 ft 204 kts 186°
2026-05-05 20:58 18.54364 -66.25623 3496 ft 201 kts 186°
2026-05-05 20:58 18.52979 -66.25857 3269 ft 201 kts 186°
2026-05-05 20:58 18.51598 -66.26084 3188 ft 201 kts 186°
2026-05-05 20:58 18.50218 -66.26314 3179 ft 201 kts 186°
2026-05-05 20:59 18.48838 -66.26535 3179 ft 201 kts 186°
2026-05-05 20:59 18.47457 -66.26770 3186 ft 201 kts 186°
2026-05-05 20:59 18.46076 -66.27006 3181 ft 200 kts 186°
2026-05-05 20:59 18.44703 -66.27245 3185 ft 200 kts 187°
2026-05-05 21:00 18.43336 -66.27480 3181 ft 199 kts 186°
2026-05-05 21:00 18.41965 -66.27668 3172 ft 198 kts 179°
2026-05-05 21:00 18.40608 -66.27485 3193 ft 197 kts 162°
2026-05-05 21:00 18.39447 -66.26752 3087 ft 196 kts 135°
2026-05-05 21:01 18.38804 -66.25489 2852 ft 200 kts 105°
2026-05-05 21:01 18.38686 -66.24019 2633 ft 202 kts 92°
2026-05-05 21:01 18.38719 -66.22539 2430 ft 202 kts 91°
2026-05-05 21:01 18.38768 -66.21063 2390 ft 202 kts 92°
2026-05-05 21:02 18.38807 -66.19587 2375 ft 202 kts 91°
2026-05-05 21:02 18.38838 -66.18110 2379 ft 202 kts 93°
2026-05-05 21:02 18.38863 -66.16658 2381 ft 195 kts 94°
2026-05-05 21:02 18.38884 -66.15253 2371 ft 186 kts 92°
2026-05-05 21:03 18.38956 -66.13947 2373 ft 173 kts 83°
2026-05-05 21:03 18.39342 -66.12775 2234 ft 168 kts 71°
2026-05-05 21:03 18.39796 -66.11656 2007 ft 166 kts 71°
2026-05-05 21:03 18.40232 -66.10553 1788 ft 159 kts 73°
2026-05-05 21:04 18.40644 -66.09519 1576 ft 152 kts 70°
2026-05-05 21:04 18.41056 -66.08491 1372 ft 153 kts 72°
2026-05-05 21:04 18.41476 -66.07450 1198 ft 155 kts 75°
2026-05-05 21:04 18.41897 -66.06400 984 ft 156 kts 70°
2026-05-05 21:05 18.42323 -66.05350 785 ft 157 kts 69°
2026-05-05 21:05 18.42747 -66.04298 623 ft 154 kts 75°
2026-05-05 21:05 18.43161 -66.03267 410 ft 154 kts 68°
2026-05-05 21:05 18.43577 -66.02238 216 ft 153 kts 68°
2026-05-05 21:06 18.43994 -66.01207 32 ft 151 kts 71°
2026-05-05 21:06 18.44367 -66.00265 25 ft 122 kts 66°
2026-05-05 21:06 18.44579 -65.99754 24 ft 51 kts 66°
2026-05-05 21:06 18.44686 -65.99480 25 ft 31 kts 79°
2026-05-05 21:07 18.44619 -65.99405 25 ft 10 kts 202°
2026-05-05 21:07 18.44581 -65.99457 23 ft 9 kts 242°
2026-05-05 21:07 18.44557 -65.99515 24 ft 9 kts 247°
2026-05-05 21:07 18.44533 -65.99575 22 ft 9 kts 247°
2026-05-05 21:08 18.44508 -65.99638 23 ft 9 kts 247°
2026-05-05 21:08 18.44482 -65.99702 24 ft 10 kts 246°
2026-05-05 21:08 18.44454 -65.99768 25 ft 10 kts 248°
2026-05-05 21:08 18.44428 -65.99837 24 ft 10 kts 247°
2026-05-05 21:09 18.44399 -65.99906 24 ft 10 kts 246°
2026-05-05 21:09 18.44369 -65.99977 21 ft 11 kts 246°
2026-05-05 21:09 18.44340 -66.00050 22 ft 11 kts 247°
2026-05-05 21:09 18.44310 -66.00124 23 ft 11 kts 247°
2026-05-05 21:10 18.44281 -66.00195 24 ft 10 kts 245°
2026-05-05 21:10 18.44234 -66.00236 22 ft 8 kts 185°
2026-05-05 21:10 18.44185 -66.00210 23 ft 8 kts 141°
2026-05-05 21:10 18.44138 -66.00181 23 ft 7 kts 154°
2026-05-05 21:11 18.44094 -66.00161 24 ft 7 kts 156°
2026-05-05 21:11 18.44049 -66.00141 24 ft 7 kts 156°
2026-05-05 21:11 18.44002 -66.00119 25 ft 7 kts 156°
2026-05-05 21:11 18.43955 -66.00097 22 ft 8 kts 155°
2026-05-05 21:12 18.43906 -66.00075 24 ft 8 kts 158°
2026-05-05 21:12 18.43856 -66.00053 22 ft 8 kts 158°
2026-05-05 21:12 18.43803 -66.00031 24 ft 8 kts 158°
2026-05-05 21:12 18.43751 -66.00008 23 ft 8 kts 156°
2026-05-05 21:13 18.43702 -66.00006 22 ft 7 kts 208°
2026-05-05 21:13 18.43682 -66.00042 21 ft 5 kts 255°
2026-05-05 21:13 18.43677 -66.00064 23 ft 2 kts 258°
2026-05-05 21:13 18.43675 -66.00077 23 ft 0 kts 258°
2026-05-05 21:14 18.43674 -66.00083 22 ft 1 kts 258°
2026-05-05 21:14 18.43674 -66.00084 22 ft 0 kts 258°